Wind_Speed
14 14 13 13 13 15 17 18 16 15 15 17 18 18 16 17 19 22 24 23 22 22 23 26 27 26 24 22 20 19 19 19 19 19 19 19 18 17 16 15 14 13 13 13 13 13 13 13 14 14 13 12 12 12 13 14 14 13 13 13 12 12 13 13 12 12 14 14 13 13 13 13 13 13 13 13 13 13 13 13 13 13 14 15 15
13 14 15 17 17 18 20 20 18 16 15 16 18 17 16 16 18 22 24 23 23 23 24 26 27 26 24 22 21 20 19 19 19 19 19 19 18 16 15 14 14 14 14 14 14 14 14 14 14 14 13 13 13 13 14 15 16 15 15 14 13 13 15 14 14 14 15 16 16 16 16 16 16 16 16 16 16 15 15 14 15 15 16 17 18
12 13 15 18 20 20 22 23 20 17 15 16 18 17 16 15 17 21 24 24 24 24 24 26 26 26 24 22 21 20 19 19 19 19 20 19 17 16 16 15 15 15 16 16 16 15 14 14 14 13 13 13 13 14 14 15 16 17 16 15 14 15 16 16 16 16 16 17 18 18 18 18 18 18 18 19 18 17 17 17 17 18 19 19 20
14 15 15 17 20 20 21 23 21 18 15 16 17 17 16 16 18 22 24 24 24 23 24 26 26 26 24 22 20 20 20 19 19 19 19 18 17 16 17 17 17 17 17 18 18 17 16 16 15 14 14 14 14 14 15 15 17 18 17 17 16 16 17 18 19 18 18 19 20 20 20 20 21 21 21 21 21 20 20 20 20 21 21 22 23
15 16 17 18 20 19 20 23 21 19 17 17 17 16 15 17 20 22 22 22 23 24 25 27 26 26 24 22 21 21 20 19 19 19 19 18 17 17 18 18 18 18 19 19 19 19 19 18 17 17 17 16 17 17 16 17 19 20 19 19 18 18 19 20 21 21 21 21 21 22 22 22 22 23 23 23 22 22 22 22 23 23 23 23 24
18 17 19 21 21 18 20 22 19 18 18 18 17 15 14 17 21 23 23 22 23 25 26 26 26 25 24 22 22 21 19 19 20 20 19 18 17 17 18 18 18 18 18 18 18 19 19 18 18 18 19 19 20 20 20 20 21 21 22 21 21 22 22 22 22 23 24 24 24 24 24 25 24 24 24 25 24 24 23 23 24 24 24 24 25
21 19 20 22 20 18 19 20 18 16 17 18 18 16 15 18 21 23 23 22 22 23 24 25 24 24 23 21 21 21 20 20 21 21 20 19 18 18 17 18 18 17 17 16 17 17 18 18 18 19 20 21 21 22 22 22 22 23 23 23 24 26 26 25 24 24 25 26 27 26 26 27 26 26 26 25 25 26 26 25 25 26 26 26 26
22 20 20 20 19 18 18 18 18 17 16 17 18 17 17 19 21 23 23 22 21 21 22 23 23 22 21 20 21 21 21 21 21 21 21 20 20 19 18 17 17 17 17 16 16 17 18 19 20 20 20 21 22 23 23 24 24 25 25 24 25 27 28 27 26 26 26 26 27 27 27 27 27 28 27 26 26 26 27 27 28 28 28 28 27
21 21 21 19 18 19 19 20 20 19 16 17 18 18 18 20 22 24 23 21 19 19 20 20 20 20 20 20 21 21 22 22 21 21 21 21 20 20 19 18 18 18 19 18 18 19 20 21 21 21 21 22 23 25 26 26 27 27 27 25 25 26 28 28 28 28 27 27 27 27 27 27 27 27 27 27 28 28 28 29 29 30 31 31 30
21 21 21 19 18 19 20 21 20 19 18 19 20 18 18 22 25 25 23 21 19 19 19 19 19 19 21 21 21 20 21 21 21 21 21 21 21 21 21 21 20 20 21 21 21 22 22 22 21 21 21 22 24 25 27 27 28 29 29 28 27 27 28 28 29 29 28 28 27 27 27 28 28 28 29 30 31 32 33 33 32 32 34 34 34
20 20 20 19 20 19 20 21 21 20 20 21 21 19 20 24 25 23 21 20 19 20 20 20 21 22 23 23 22 20 20 21 21 22 22 22 22 23 23 23 23 23 23 23 22 22 21 20 20 20 21 22 24 25 26 27 28 29 30 30 30 28 28 28 29 29 29 29 29 28 28 29 30 30 31 32 33 35 36 37 37 37 37 38 37
19 20 19 20 21 20 20 20 20 20 21 21 20 19 21 24 21 18 18 18 18 20 22 22 24 25 25 25 23 21 20 20 21 22 22 22 23 24 25 25 25 25 25 24 23 21 20 20 21 21 23 24 25 26 27 27 28 28 29 30 30 29 28 28 28 28 29 29 29 29 30 31 32 32 33 34 35 36 37 38 38 39 40 41 40
17 18 18 20 22 21 19 18 18 19 21 21 19 19 22 22 18 17 17 18 20 23 25 26 26 25 25 24 22 21 20 20 21 22 23 23 24 25 25 25 25 26 26 25 25 24 24 24 24 24 25 26 27 28 28 29 29 29 29 29 29 29 29 29 29 29 29 29 29 30 31 32 33 34 34 35 35 36 37 38 39 40 41 42 42
16 17 18 19 21 21 19 18 18 19 20 20 19 21 23 21 19 19 20 22 24 27 27 26 24 23 23 23 21 20 20 20 21 22 23 24 25 26 26 26 25 26 26 27 27 27 27 26 25 25 25 25 26 28 29 30 31 30 30 29 29 30 30 31 30 30 30 30 30 31 33 34 34 34 35 35 36 38 39 40 42 44 45 46 47
17 17 18 18 18 18 18 18 18 18 19 20 21 23 23 21 20 20 22 24 25 26 25 24 23 23 24 23 21 21 21 22 23 23 24 24 24 25 25 26 26 26 27 28 29 29 29 29 27 25 24 25 28 30 31 31 31 31 30 30 30 30 31 31 31 31 31 32 32 33 34 36 36 37 38 39 41 43 44 46 47 49 49 49 50
16 16 17 19 17 15 15 17 19 19 20 22 24 24 22 21 20 20 22 23 23 24 24 24 24 23 23 23 23 23 24 24 25 25 26 26 25 25 25 27 28 29 30 31 32 32 32 32 29 27 28 30 32 33 33 32 32 31 30 30 30 30 30 31 31 32 33 34 34 35 36 37 38 39 41 42 44 44 46 48 50 51 51 52 52
14 14 14 16 16 14 14 15 17 20 22 24 25 24 23 22 20 20 21 22 22 23 25 25 24 23 23 23 23 23 24 25 26 27 28 29 29 29 29 29 30 32 34 35 34 35 34 33 30 29 30 32 32 33 33 32 31 30 29 29 30 29 30 31 32 33 35 35 36 38 39 39 40 42 43 44 45 44 44 47 49 51 53 54 54
14 14 12 11 12 14 15 15 16 18 21 23 23 23 22 22 21 22 24 25 24 23 25 26 25 23 23 23 22 22 23 24 25 27 29 30 31 31 31 32 32 34 35 35 34 34 33 32 31 31 32 32 32 34 33 31 30 29 28 28 29 30 31 32 34 35 37 38 39 40 42 42 43 44 44 45 45 44 44 47 50 52 55 56 57
16 15 13 11 12 14 16 16 16 18 20 21 23 23 23 23 25 28 30 30 28 25 25 25 24 24 24 24 24 24 24 24 24 25 26 27 28 29 30 30 31 31 32 32 31 29 28 29 30 31 32 32 33 35 34 32 30 29 28 29 31 32 33 34 35 37 39 41 42 44 45 46 46 46 46 46 47 48 49 51 54 57 59 61 62
17 16 15 13 14 15 16 16 19 22 24 26 27 27 27 28 30 31 31 31 31 29 27 25 24 24 25 26 27 27 26 25 24 23 24 24 25 26 26 27 27 28 28 28 27 25 25 26 28 29 30 31 33 34 34 32 30 29 30 32 33 34 35 36 38 39 41 43 45 46 48 49 49 50 50 51 53 55 56 58 60 62 64 64 65
19 19 18 16 15 15 16 19 23 26 28 31 34 34 34 34 34 33 33 33 31 29 27 25 24 24 25 26 26 26 25 24 24 23 23 23 24 25 26 26 26 27 26 25 24 23 24 25 25 26 28 30 31 33 33 32 32 32 33 34 35 36 38 40 42 44 44 46 47 49 50 51 52 54 55 56 58 59 61 63 64 65 66 66 66
21 21 21 21 20 17 16 18 20 22 25 30 35 37 36 35 34 33 32 30 26 24 24 24 23 24 24 24 24 24 23 24 24 24 24 25 26 26 26 26 26 26 26 25 24 24 25 25 26 27 28 29 30 32 33 34 34 35 35 36 38 40 42 44 45 47 48 50 51 52 53 54 55 56 57 58 60 62 63 65 66 67 67 67 68
23 23 22 23 23 22 21 20 20 20 21 23 25 25 24 23 24 24 23 22 22 22 23 22 22 22 22 23 23 23 23 24 25 25 25 26 26 26 27 27 27 27 27 27 27 27 27 28 28 29 30 31 32 33 35 36 37 38 39 41 43 44 46 47 48 49 51 52 53 54 54 55 56 58 59 61 62 64 65 66 67 68 69 70 71
22 22 23 23 24 24 23 23 24 24 24 22 20 17 16 17 18 17 18 19 21 22 22 21 21 22 22 23 23 23 23 24 25 26 27 26 26 27 27 28 29 29 29 29 30 30 30 31 32 32 33 35 36 37 38 40 41 43 45 46 48 49 50 51 52 53 54 54 54 55 56 57 58 60 61 62 64 65 66 67 69 70 71 72 73
22 20 20 21 23 24 23 23 24 26 26 26 24 22 20 20 19 17 17 17 19 22 23 22 23 24 24 24 24 24 25 26 27 28 28 27 27 28 29 30 31 31 32 32 32 33 33 34 35 37 38 39 40 42 43 44 46 48 49 51 52 53 54 55 55 55 55 56 56 57 59 60 62 63 64 65 66 67 69 70 71 72 74 74 75
23 20 19 20 23 24 24 23 25 27 28 28 28 27 26 25 23 22 22 21 22 26 28 25 24 25 25 25 26 27 27 28 28 29 29 30 30 31 32 32 33 33 33 34 34 35 36 37 38 40 41 42 44 45 46 47 48 50 51 52 53 54 55 55 55 56 57 58 59 61 62 64 66 67 68 69 70 71 73 74 74 75 75 75 74
24 21 20 20 21 22 24 24 25 26 28 28 28 27 27 26 25 25 26 26 27 30 30 28 27 27 27 27 28 29 29 29 29 30 31 32 33 34 34 35 35 35 36 36 37 38 39 40 41 41 42 44 45 46 47 48 49 51 52 53 53 54 55 56 57 58 60 61 62 64 65 67 68 70 70 71 72 72 73 73 73 73 73 72 70
26 24 23 22 21 22 24 26 26 27 28 29 29 28 28 28 28 28 28 28 28 29 29 29 28 28 28 29 29 29 30 30 30 31 32 32 33 34 35 35 36 36 37 38 38 39 40 40 41 42 42 43 45 46 47 49 50 51 52 53 54 56 57 59 60 61 63 64 65 67 68 69 70 71 72 72 72 72 71 70 69 69 68 67 66
27 27 27 26 24 24 26 27 27 28 29 29 30 31 31 30 29 28 28 28 28 28 29 29 30 30 30 30 30 30 31 31 31 32 32 32 33 33 33 34 35 36 37 38 39 40 40 40 41 42 42 44 45 47 49 50 52 53 54 56 57 58 60 61 62 63 65 66 67 69 70 72 73 74 75 74 74 73 72 70 69 68 67 65 64
27 28 28 28 28 28 28 28 28 29 30 30 30 31 31 31 31 30 29 29 29 30 30 31 31 31 31 31 31 31 32 32 32 32 33 33 34 35 35 36 37 38 38 39 40 40 41 42 42 43 45 46 48 49 51 52 53 55 56 57 58 60 61 63 64 65 67 68 70 71 72 73 74 74 74 73 72 72 70 69 68 67 66 64 63
30 31 31 30 29 29 28 28 29 30 31 31 31 30 30 31 32 33 32 31 31 31 32 32 32 33 33 33 33 33 33 33 33 34 35 36 37 37 38 38 38 39 39 40 41 42 43 44 45 46 47 48 50 51 52 53 54 56 57 59 60 61 63 64 66 67 68 69 70 70 70 70 70 70 70 70 69 69 68 67 66 65 64 63 61
30 31 31 30 29 28 27 27 29 30 31 32 32 31 30 31 31 32 32 31 32 32 33 33 34 34 35 35 35 34 34 35 35 36 37 37 37 37 38 38 39 39 40 41 43 44 45 46 47 48 48 49 50 52 53 54 55 56 58 59 60 61 62 63 65 66 66 66 66 66 66 66 66 66 66 66 66 65 65 64 63 62 60 59 58
33 33 33 32 32 31 30 30 30 31 31 32 32 32 32 32 32 31 31 32 32 33 33 34 34 35 35 36 36 36 36 36 36 36 37 37 37 37 38 39 40 41 41 42 43 44 45 45 46 47 47 48 49 51 52 53 54 55 57 58 59 59 60 61 61 62 62 62 62 62 62 62 62 62 62 62 61 60 59 58 56 55 53 52 51
37 36 35 34 35 35 35 34 34 34 34 34 35 35 35 34 33 33 34 35 35 35 34 34 34 34 34 34 35 35 35 35 35 36 36 36 37 37 38 39 39 39 40 41 41 42 43 44 45 46 47 48 49 50 51 52 53 55 56 57 57 58 58 58 58 59 59 59 59 59 59 59 59 58 57 56 54 53 51 50 48 47 46 45 44
37 37 35 35 36 36 36 35 36 36 36 37 38 38 38 37 37 38 38 38 37 36 35 34 33 33 33 33 33 33 34 34 34 35 35 35 36 36 36 37 38 38 39 40 41 42 43 44 45 46 47 48 49 50 51 52 53 54 54 55 56 56 56 56 56 56 56 57 57 57 56 55 53 51 50 49 48 46 44 42 40 39 37 34 32
38 38 38 39 39 39 38 37 36 36 36 37 38 39 39 39 39 39 38 37 35 34 33 33 32 32 32 32 32 32 33 33 33 34 34 34 35 35 36 37 38 39 39 40 41 42 43 44 45 46 47 48 49 50 51 51 52 53 53 54 54 54 54 55 55 55 55 55 54 52 50 48 47 46 45 43 41 38 35 33 31 29 27 24 23
40 40 41 42 42 42 41 40 39 38 37 37 38 37 37 36 36 35 35 33 32 31 31 31 30 31 31 31 32 32 33 33 33 33 34 35 35 36 36 37 38 39 40 41 41 42 43 44 45 46 46 47 48 49 49 50 50 51 52 52 52 53 53 53 53 53 51 49 47 46 45 44 43 41 38 35 33 30 28 27 26 24 22 21 20
43 42 43 43 44 44 44 42 41 40 39 38 38 38 37 36 36 35 34 32 31 31 32 32 31 31 32 32 32 33 33 33 34 34 34 35 35 36 37 37 38 39 40 41 41 42 43 44 44 45 46 46 47 47 48 48 49 49 50 50 51 51 51 51 50 48 45 43 42 42 41 40 37 34 31 28 26 26 25 25 24 22 20 19 19
42 42 41 40 41 42 43 43 42 40 38 38 38 38 37 37 36 36 35 34 32 32 33 33 33 33 33 33 34 34 34 35 35 35 35 36 36 37 37 38 39 39 40 41 41 42 42 43 44 44 45 45 46 46 46 47 47 48 48 48 48 48 48 46 44 41 40 40 39 38 36 34 31 28 26 24 23 24 24 23 22 21 19 19 18
38 38 38 37 36 36 36 38 38 38 36 35 35 34 34 34 34 34 34 33 33 33 33 33 33 33 34 35 36 35 35 36 36 36 36 37 37 38 38 38 39 39 39 40 40 41 41 42 43 43 43 44 44 45 45 46 46 46 46 46 46 45 43 40 38 37 37 36 34 33 31 29 27 24 23 22 23 23 23 23 22 21 20 20 20
37 36 36 35 35 34 33 33 33 33 33 33 33 33 33 33 32 33 33 33 34 34 34 34 34 34 35 36 36 36 36 36 36 36 36 36 36 37 37 37 37 37 38 38 39 40 40 41 41 41 42 42 43 43 44 44 44 44 44 43 42 40 37 36 35 35 33 32 30 30 29 26 24 22 22 22 22 21 20 20 20 20 19 19 19
42 40 39 39 38 37 36 35 35 35 34 34 34 34 34 34 34 34 34 34 35 35 35 35 35 35 35 36 36 36 36 35 35 35 35 35 35 35 35 35 36 36 37 37 38 38 38 39 39 40 40 41 41 41 41 41 41 41 41 39 37 35 34 33 32 31 29 28 28 28 26 23 21 21 22 21 20 18 17 17 18 18 18 18 18
46 45 45 44 44 43 41 40 39 39 38 37 37 36 35 35 35 35 35 35 35 35 36 36 35 35 35 35 35 35 34 34 34 33 33 33 33 34 34 34 34 35 35 35 36 36 37 37 37 38 39 39 39 39 39 39 39 38 36 34 32 31 31 30 29 28 27 26 26 25 23 21 20 20 19 18 17 15 15 16 17 18 17 17 17
43 43 42 42 43 43 42 41 40 40 40 39 38 37 37 36 35 35 35 35 34 34 34 34 34 34 35 34 34 34 33 33 32 32 32 32 31 32 32 32 32 33 33 34 34 34 34 35 35 36 36 37 37 37 37 36 35 33 31 30 29 29 29 28 27 26 25 24 23 22 21 20 19 19 19 18 18 17 17 18 19 19 18 17 17
35 37 37 37 37 37 37 37 38 38 38 38 38 37 36 35 35 34 34 33 33 33 33 33 33 33 33 33 33 32 32 32 31 30 30 30 29 29 29 30 31 31 31 31 32 32 32 32 33 33 34 35 35 34 33 32 30 28 27 27 27 27 26 26 25 24 23 22 21 20 19 19 19 19 19 20 20 20 20 20 20 20 20 19 17
31 31 32 33 33 33 32 33 35 35 35 35 35 35 34 34 33 33 33 32 32 32 32 32 32 32 31 31 31 31 30 29 29 28 27 27 27 27 28 28 29 29 29 29 29 29 29 30 31 32 32 32 32 31 30 28 27 26 25 25 25 25 25 24 23 23 22 20 19 18 18 18 19 19 19 20 20 20 20 20 20 20 19 17 16
29 29 30 30 30 30 30 31 32 32 33 33 33 33 33 33 32 32 32 32 32 32 31 31 31 30 30 30 29 29 28 27 26 26 26 25 25 26 26 27 27 27 27 26 26 26 27 28 29 30 30 30 29 27 26 25 24 24 24 24 23 23 23 23 22 22 21 19 18 18 19 19 20 20 20 21 20 20 20 20 20 19 17 15 14
27 28 29 29 29 29 29 30 30 31 31 32 32 32 32 32 31 31 31 31 31 31 31 30 30 29 29 28 27 26 26 26 25 24 24 24 24 24 25 25 25 25 25 24 24 25 26 27 28 28 28 27 26 24 23 23 23 23 22 22 22 22 22 21 21 21 20 19 18 18 19 20 21 21 21 21 21 20 20 20 20 19 17 15 15
26 26 27 28 28 29 29 29 29 30 30 30 30 31 31 31 30 30 30 30 30 30 29 29 28 28 27 26 26 25 25 25 24 23 23 23 23 23 23 23 24 24 24 24 23 24 25 26 27 27 26 25 24 22 21 21 21 21 21 21 21 21 21 20 20 20 19 18 18 18 18 19 19 20 20 20 19 19 19 18 19 18 17 16 15
24 24 25 26 26 27 27 28 28 29 30 30 30 30 29 29 29 29 29 29 29 28 28 27 27 26 26 25 25 25 24 24 23 23 22 22 22 22 23 23 23 24 24 24 23 24 24 25 26 26 25 24 22 21 20 20 20 20 20 20 20 20 20 20 20 19 19 19 19 18 18 19 19 19 19 19 18 18 18 17 17 17 16 16 15
22 23 23 24 25 25 25 26 27 27 28 28 29 29 29 28 28 28 28 27 27 26 26 26 25 25 25 25 24 24 24 24 23 23 22 22 22 23 23 23 24 24 24 24 23 23 23 24 25 25 24 23 21 20 19 19 19 19 19 19 19 19 19 19 19 19 19 19 19 19 19 19 19 19 19 19 18 18 17 17 16 16 16 16 16
Wind_Direction
243 250 258 261 251 237 237 244 250 255 254 243 233 229 226 223 218 214 218 227 233 230 227 228 231 232 234 234 235 235 233 232 233 233 235 238 239 240 242 244 248 252 253 252 250 248 249 251 253 255 257 256 255 254 253 251 248 244 239 238 240 247 251 253 254 254 253 252 249 245 244 244 247 250 254 257 261 264 268 273 279 283 286 288 290
250 259 265 263 254 244 241 244 248 251 251 241 232 230 231 231 225 217 219 227 229 226 226 228 231 233 235 236 236 235 233 232 232 232 233 236 236 237 240 244 250 254 255 253 251 248 248 249 251 252 252 252 251 251 252 253 253 251 249 247 245 248 252 253 253 252 252 252 251 249 247 248 250 253 256 259 261 265 269 273 276 278 280 283 286
264 266 264 258 255 254 249 245 245 245 240 228 223 225 228 234 230 219 218 223 225 224 226 228 231 234 235 236 236 235 232 232 232 232 233 234 234 236 241 247 252 254 254 253 252 251 250 250 251 251 251 250 250 253 254 256 258 258 258 257 256 255 256 256 256 255 254 254 253 252 251 252 254 255 258 261 263 266 269 272 274 275 277 279 283
273 271 267 264 268 268 253 241 240 240 234 222 216 218 223 230 227 219 219 222 222 222 226 229 232 234 236 237 235 233 233 232 231 231 231 233 234 237 243 249 252 253 252 252 253 253 252 253 255 256 256 255 253 253 255 257 260 261 261 261 260 260 261 262 262 260 258 256 255 255 254 254 257 258 259 261 265 268 270 271 272 273 276 279 282
274 269 271 279 286 280 254 239 238 238 232 222 215 216 221 224 222 220 223 225 220 221 226 230 233 235 236 237 235 235 235 234 231 230 231 234 236 240 245 249 250 250 251 252 253 253 254 256 258 260 262 262 260 258 258 258 260 262 265 266 264 263 262 263 264 265 264 262 260 259 259 258 257 259 261 263 264 267 269 271 272 274 276 278 281
283 274 275 286 291 278 252 240 239 237 232 225 217 218 222 218 216 221 226 225 221 223 228 231 234 236 238 238 237 237 238 237 233 229 232 236 240 243 246 246 247 247 248 250 251 253 255 257 259 262 263 264 264 264 263 262 264 267 269 272 271 269 266 265 266 268 269 269 266 263 263 261 259 259 262 264 266 267 269 272 275 278 279 278 280
284 275 274 282 285 271 251 241 240 237 234 228 221 222 223 215 216 226 228 222 221 226 230 233 236 238 239 239 239 238 238 237 234 231 234 239 242 242 241 241 242 244 246 249 252 255 258 259 260 261 262 264 267 269 269 269 270 269 268 269 271 271 271 270 268 267 268 270 270 267 265 265 264 263 262 264 268 271 274 276 278 279 279 280 281
287 280 276 276 275 265 249 242 241 235 232 232 226 225 224 215 218 226 224 219 222 227 231 233 236 238 239 239 238 237 235 233 232 234 237 240 241 240 238 239 242 246 249 252 255 258 260 260 261 262 264 267 271 273 273 272 271 269 267 265 267 270 273 273 271 269 267 267 268 268 267 266 267 267 267 268 270 273 276 277 278 279 280 280 281
288 282 276 269 266 261 249 242 237 227 228 234 225 222 222 215 216 221 220 221 226 231 234 235 235 236 240 242 240 236 233 231 232 235 238 239 240 239 240 242 246 250 254 257 259 261 262 262 263 264 267 269 271 273 273 273 273 273 271 267 266 268 272 273 274 273 271 270 269 269 269 269 270 271 273 272 272 273 275 276 276 278 278 278 279
285 278 271 261 259 257 246 238 229 224 232 235 223 220 220 213 211 215 223 231 235 236 237 234 231 234 239 242 241 237 233 232 234 237 239 240 240 241 243 246 249 252 256 260 262 263 263 264 266 269 272 273 274 274 274 274 274 274 273 271 266 264 265 266 268 270 270 270 270 270 271 272 272 274 275 276 276 276 277 277 276 275 274 274 275
279 273 264 256 256 254 242 235 232 233 235 229 221 221 215 207 207 215 228 239 240 237 236 229 226 232 237 239 241 240 236 235 237 239 241 241 242 244 246 248 251 254 257 260 263 265 267 269 273 277 279 280 279 279 278 276 275 274 274 273 270 266 264 265 266 267 269 270 271 273 275 276 277 279 281 282 282 281 280 279 279 278 277 277 277
269 261 254 253 256 252 240 234 236 233 225 220 226 228 212 203 208 222 234 242 241 236 233 228 226 231 235 237 239 241 240 239 239 240 242 243 244 246 249 251 255 257 260 262 264 267 270 273 277 280 281 281 282 282 280 276 273 271 270 271 271 271 269 268 268 269 270 272 275 277 279 280 282 282 282 282 282 282 282 282 283 284 285 284 284
256 249 252 255 250 241 234 231 231 227 221 222 232 230 213 207 218 230 233 235 236 232 229 228 228 231 235 238 240 241 241 241 240 240 241 243 245 248 252 254 258 260 262 263 263 265 268 271 274 276 278 281 281 278 276 273 270 268 266 266 267 268 268 268 267 268 270 272 275 277 279 280 281 280 279 278 279 282 284 285 287 289 290 289 287
244 243 254 256 242 229 227 229 229 229 229 229 227 217 211 216 228 233 229 228 229 229 229 230 231 231 235 238 240 241 242 242 243 242 243 244 246 249 252 255 257 259 260 262 262 264 266 269 270 271 275 280 281 276 273 271 269 267 264 262 262 263 265 267 268 270 272 274 276 279 280 280 281 281 281 282 284 287 288 288 288 290 290 289 287
248 245 247 245 234 224 223 227 230 230 229 225 217 213 216 225 232 234 232 230 231 231 230 232 231 230 232 235 238 241 243 244 245 245 246 246 245 246 250 253 255 258 261 263 264 266 267 268 269 271 273 274 270 270 270 268 265 265 264 263 262 263 265 267 270 272 273 275 278 281 282 283 283 284 284 285 287 288 289 290 291 290 289 288 288
249 242 239 236 234 230 223 223 226 226 223 218 215 218 226 231 232 235 236 234 234 233 230 231 233 234 235 236 239 243 246 248 251 252 253 253 251 248 249 253 258 264 266 266 267 268 267 266 266 267 269 265 261 265 270 268 264 264 265 266 266 267 268 270 272 275 277 280 282 283 284 285 285 285 285 286 287 288 291 292 291 289 288 288 287
247 239 233 227 229 233 229 226 225 220 217 218 222 228 235 236 235 238 241 239 236 232 231 233 236 238 240 241 243 247 251 253 255 257 258 259 258 255 253 256 260 264 266 266 268 268 266 263 260 259 261 260 257 261 267 265 262 263 266 268 271 273 274 276 278 280 282 284 285 285 285 286 286 286 286 286 286 288 288 287 285 285 286 287 287
266 258 243 224 227 235 230 227 228 221 218 224 231 234 235 235 230 225 230 238 240 235 232 232 234 237 241 244 247 251 254 258 259 259 258 258 258 257 257 258 258 259 261 264 266 266 264 261 258 256 258 258 255 256 259 261 261 263 267 272 275 277 279 280 281 283 284 285 285 285 286 287 287 287 287 287 287 287 285 283 282 283 284 285 286
277 270 257 245 247 245 236 231 232 227 224 229 237 241 237 234 229 224 228 237 242 237 233 231 234 240 243 245 249 252 256 260 261 260 257 255 255 256 257 258 258 258 260 262 264 265 265 262 259 258 260 258 252 250 256 261 263 265 269 273 275 277 279 280 282 284 286 286 287 288 288 289 289 288 288 286 285 283 282 281 281 282 283 285 287
277 273 265 254 245 242 244 246 244 238 227 219 223 235 239 237 235 233 235 240 242 241 239 238 238 240 242 246 250 253 256 258 258 258 257 255 256 257 258 259 260 261 263 265 268 269 270 267 262 260 257 252 246 249 256 262 265 267 269 272 275 278 281 283 284 285 286 286 287 288 289 289 289 287 286 284 283 283 282 283 283 284 285 287 288
273 272 270 264 254 243 237 235 235 234 228 218 216 225 234 235 234 235 239 244 245 241 238 238 236 235 238 244 248 251 254 256 256 256 256 256 257 258 259 260 262 263 266 268 269 268 267 265 261 256 252 249 248 253 259 264 267 269 271 274 277 281 283 285 286 286 286 286 287 287 287 286 286 285 285 285 285 285 285 286 286 287 288 289 290
268 268 269 267 264 257 247 240 235 229 224 220 220 225 230 231 232 235 239 243 241 233 231 234 235 235 238 243 247 251 253 255 256 256 256 258 260 260 261 262 263 264 265 266 266 265 264 263 261 258 257 257 258 261 264 268 270 272 274 277 279 282 284 285 286 286 287 287 287 286 286 285 286 286 286 286 286 286 287 287 288 289 290 290 291
264 264 265 266 266 264 258 255 253 246 236 231 227 225 226 227 228 228 228 228 229 231 235 239 240 241 244 249 253 256 257 256 257 259 258 259 260 261 262 262 262 264 264 265 265 263 262 261 261 262 262 263 264 266 267 269 271 273 276 279 281 284 285 286 287 287 287 287 287 287 286 286 286 286 285 285 285 285 286 287 288 289 289 289 289
264 262 262 262 261 260 258 256 256 255 254 252 247 236 229 230 231 230 230 235 242 244 242 243 247 250 253 256 258 257 256 257 258 259 259 257 257 258 259 261 262 264 266 266 267 266 265 264 264 265 266 267 268 269 270 272 275 277 280 283 285 287 288 288 288 288 288 288 288 287 287 286 286 285 285 285 285 286 286 286 287 287 287 287 287
267 265 262 258 256 258 259 255 252 251 253 255 255 252 247 244 241 235 234 240 249 252 249 248 252 256 257 257 256 254 254 257 259 260 260 259 259 259 259 261 264 267 269 270 270 270 270 270 270 271 271 272 273 274 275 277 279 281 283 285 286 287 288 288 289 289 289 289 289 289 289 289 289 289 289 289 289 289 288 288 287 287 287 286 286
266 263 258 257 261 264 261 252 247 248 252 254 256 256 253 250 245 237 231 229 235 247 254 254 254 256 257 257 257 257 257 259 261 262 263 264 264 265 265 266 267 269 270 271 271 272 272 272 272 273 274 274 276 277 279 280 282 283 285 285 286 287 288 288 289 290 290 290 290 290 290 290 290 290 290 290 290 289 289 288 288 288 287 287 287
260 259 256 258 263 264 261 256 252 251 251 252 254 255 252 249 245 242 240 237 238 246 254 257 256 257 258 259 259 261 262 264 265 265 266 267 268 268 269 269 270 270 271 271 271 272 273 274 275 276 277 278 279 280 281 282 283 283 284 285 286 288 289 289 290 290 290 290 290 290 290 290 290 291 290 290 290 290 289 289 289 289 289 289 289
259 258 256 255 254 252 253 256 257 254 251 250 251 251 250 248 246 245 245 246 247 251 255 257 258 259 259 260 261 262 263 266 268 269 269 270 270 271 271 271 272 273 273 274 275 276 277 278 279 279 280 280 281 281 282 283 284 285 287 288 290 291 291 291 292 292 291 291 291 291 291 291 291 290 290 290 290 290 290 290 290 290 291 291 290
263 263 263 261 256 251 250 251 252 252 254 254 254 252 251 250 250 251 252 253 254 255 257 258 259 260 260 260 261 262 264 266 268 269 271 272 273 274 275 275 275 276 276 277 278 279 280 281 282 282 283 283 284 284 286 287 289 290 291 292 292 292 292 292 291 291 291 291 291 290 290 289 289 289 289 289 289 290 290 290 291 291 291 291 290
249 250 254 258 259 258 256 254 252 252 255 256 255 254 254 254 255 255 255 256 256 258 259 261 262 263 264 266 266 265 266 267 267 268 269 271 273 274 276 276 277 278 279 280 281 282 283 284 284 285 286 287 287 288 289 290 291 291 291 291 291 290 290 290 289 289 288 288 288 288 288 288 288 289 289 289 290 291 291 291 291 291 291 290 290
240 236 236 241 246 249 252 252 251 252 254 255 255 254 254 254 254 254 254 255 257 258 260 261 263 264 264 265 265 264 265 265 265 267 268 270 272 273 275 276 277 279 280 281 282 283 284 285 286 286 287 288 288 288 288 289 289 289 289 288 288 287 287 287 287 286 286 286 286 287 288 289 290 290 291 291 292 292 292 291 291 291 290 289 289
240 238 236 236 237 240 243 244 244 245 247 248 250 252 252 251 249 248 249 250 253 255 257 259 260 262 262 263 264 265 266 266 267 268 269 270 272 273 274 276 277 278 280 281 282 283 283 284 284 284 285 285 285 285 285 285 285 285 285 285 285 285 285 286 286 287 287 288 289 290 290 291 292 292 292 292 292 292 292 292 291 291 290 289 288
243 246 249 249 247 247 246 246 245 246 247 246 246 246 247 246 245 244 246 251 256 260 263 264 265 265 266 266 267 268 268 269 269 270 271 272 273 274 275 277 277 278 279 280 280 280 281 281 281 281 281 282 282 283 283 283 284 284 284 285 286 287 287 288 288 289 290 291 292 292 293 293 294 293 293 293 294 294 294 294 293 293 292 290 289
248 251 255 257 257 256 254 253 251 251 251 251 250 248 246 246 248 252 257 262 266 269 272 273 272 271 269 268 268 268 268 269 269 270 271 273 274 274 275 276 277 277 278 278 279 280 281 281 282 282 282 283 283 284 285 286 286 287 288 288 289 290 290 290 291 292 293 294 295 295 295 295 295 295 295 296 296 296 296 296 296 295 294 292 291
251 252 253 254 254 253 254 253 252 251 252 253 253 254 253 254 256 260 263 265 268 271 273 273 272 270 269 268 268 268 269 269 271 272 273 275 276 277 277 278 279 280 280 281 281 282 282 283 283 284 285 285 286 287 288 289 290 290 291 291 292 292 293 293 294 295 295 296 296 296 296 296 297 297 298 298 298 299 300 300 300 299 299 298 298
248 249 250 250 249 249 249 248 248 249 251 252 254 255 256 257 258 260 262 264 268 270 270 269 268 268 268 269 270 271 271 273 274 276 277 278 279 280 280 281 281 282 282 282 282 283 283 284 285 286 288 289 290 290 291 292 292 293 293 293 294 294 295 296 296 297 297 296 296 296 297 298 298 299 299 300 302 302 303 304 306 307 305 305 305
250 249 249 250 251 251 251 251 251 251 253 255 256 257 258 258 259 261 264 267 270 269 267 267 268 270 271 273 274 274 275 277 278 279 280 280 281 281 281 281 282 282 283 283 284 285 286 287 288 289 290 291 292 293 293 293 293 293 294 294 295 295 296 297 297 297 297 297 297 297 298 299 299 300 301 303 305 306 306 307 309 308 305 303 301
255 255 254 254 255 257 257 258 258 259 260 261 262 263 264 265 267 268 270 272 274 273 273 274 276 277 277 277 277 277 279 280 280 280 280 280 280 280 280 281 282 283 284 284 285 286 288 289 290 291 292 292 293 293 293 293 293 293 294 294 295 296 297 298 298 298 297 298 298 299 300 300 301 301 302 303 306 308 308 306 304 302 301 301 300
259 259 258 258 258 260 261 261 263 264 265 266 267 267 268 270 272 274 274 275 276 277 278 280 281 281 280 279 279 279 280 279 279 279 279 280 280 281 281 282 283 284 285 286 287 288 289 290 291 291 292 292 292 292 293 293 294 294 295 296 297 298 298 298 298 298 298 300 301 301 301 302 302 301 301 303 305 307 306 304 301 300 301 303 305
260 259 259 258 258 259 260 262 263 264 266 267 269 269 271 272 274 276 277 277 277 277 278 279 279 278 278 278 277 278 278 278 278 279 279 280 280 281 282 283 283 284 285 286 288 289 290 290 291 291 292 292 293 293 294 295 295 296 297 298 299 299 299 298 298 299 301 302 302 303 303 303 303 301 300 301 303 304 304 301 298 297 300 302 303
262 261 260 260 260 261 262 263 264 264 264 265 267 268 270 271 273 274 275 275 275 275 276 277 277 277 277 276 276 276 276 276 277 278 278 279 280 281 282 283 284 285 287 288 289 290 290 291 291 292 293 294 294 295 296 297 297 298 299 300 300 299 298 298 300 301 302 303 304 304 305 304 303 301 300 301 303 304 304 301 298 297 299 300 300
264 264 264 264 265 266 267 268 269 269 268 268 269 271 272 272 273 273 273 273 273 274 275 275 275 275 275 274 275 275 276 276 277 278 279 280 281 282 283 284 285 286 288 289 290 290 291 292 293 294 295 295 296 297 298 299 300 300 300 300 298 298 298 300 302 303 304 305 305 305 304 302 301 303 305 307 306 303 299 298 299 300 300 301 301
266 267 268 268 268 269 271 271 272 272 272 272 272 273 273 273 273 273 272 272 272 272 273 273 273 273 273 274 275 276 276 277 278 279 280 281 282 282 283 284 286 287 288 289 290 292 293 294 295 296 297 298 298 299 300 300 301 300 300 298 298 298 300 302 303 304 305 305 305 304 300 297 296 299 304 309 309 304 298 297 300 302 303 303 303
265 266 267 268 268 269 270 271 270 270 271 271 272 272 272 272 272 271 270 270 269 269 270 270 270 271 271 272 273 274 275 276 277 278 279 280 281 282 283 285 286 287 289 290 291 293 295 296 297 298 299 300 300 301 301 301 300 299 298 298 298 300 301 302 303 304 305 305 304 302 299 296 295 296 298 300 301 300 298 298 300 304 306 306 305
265 265 265 265 265 265 265 264 265 265 266 267 268 269 269 269 269 269 268 268 268 268 268 268 268 269 269 270 270 271 272 273 274 275 277 278 279 281 283 284 286 287 289 291 293 295 296 298 299 300 301 302 302 302 302 301 299 298 298 299 300 301 301 302 303 304 305 304 302 299 298 298 298 299 298 297 297 297 296 296 298 301 304 306 305
268 267 266 265 264 262 260 259 260 261 261 261 262 263 264 264 265 265 265 266 266 267 267 268 268 268 268 268 269 269 270 271 272 273 274 275 277 279 281 283 285 288 291 293 296 298 299 301 302 303 304 304 304 303 302 301 299 299 300 301 302 302 303 303 305 306 307 305 300 296 296 298 299 302 303 302 301 300 300 300 300 300 301 303 303
269 268 268 267 266 264 261 260 261 262 261 261 260 261 261 261 262 263 263 264 265 266 267 267 268 267 267 267 268 268 268 268 268 269 270 272 274 277 280 283 287 290 294 298 300 302 304 306 308 308 307 307 306 305 303 302 302 303 304 305 305 305 305 306 307 309 308 305 300 295 294 296 298 300 303 304 304 302 301 301 302 303 303 304 303
269 268 267 267 266 265 263 262 263 264 264 264 263 263 263 263 263 264 264 265 265 266 266 266 266 266 266 265 265 264 263 262 262 264 266 269 273 277 281 285 289 293 297 300 302 304 308 311 313 313 312 311 309 307 305 304 305 307 308 308 308 307 306 306 307 309 309 307 302 298 296 297 298 300 301 302 303 303 301 300 300 301 301 301 302
271 270 268 267 266 265 264 263 263 264 265 265 265 265 266 266 265 265 265 265 265 264 264 264 263 262 261 260 258 257 256 256 258 260 263 267 272 276 281 285 290 294 297 299 301 304 309 314 317 317 316 314 311 308 306 306 307 309 311 311 310 309 307 306 307 308 309 309 306 303 302 301 302 303 304 304 304 305 303 300 297 296 297 299 302
273 272 270 268 267 265 264 263 263 263 265 266 265 265 265 266 266 265 265 264 264 263 261 259 258 256 255 253 252 252 252 252 254 256 260 265 270 275 279 284 288 292 296 298 300 302 308 314 318 319 318 316 312 309 307 307 309 311 313 314 314 313 311 309 308 307 307 308 308 306 304 303 302 303 304 304 304 304 303 301 299 298 299 302 306
278 277 275 273 270 267 265 264 262 261 262 263 263 263 262 262 263 263 263 262 261 260 257 255 252 250 249 249 248 248 248 249 251 255 259 264 268 273 277 282 286 291 295 297 298 301 306 313 318 320 320 318 314 311 309 309 311 313 315 316 316 316 315 313 310 307 305 304 304 304 304 303 301 301 301 301 302 302 301 301 301 302 303 305 308
Height
5757 5759 5761 5762 5761 5761 5761 5762 5762 5763 5763 5764 5764 5765 5766 5767 5768 5770 5771 5772 5773 5774 5775 5777 5778 5779 5779 5780 5780 5781 5782 5782 5783 5784 5785 5785 5786 5787 5788 5788 5789 5789 5790 5790 5790 5790 5790 5791 5790 5790 5791 5792 5792 5793 5793 5793 5794 5795 5796 5797 5797 5797 5797 5798 5799 5799 5799 5799 5799 5800 5799 5799 5799 5799 5799 5799 5799 5799 5799 5799 5799 5799 5798 5798 5797
5755 5757 5758 5759 5758 5757 5758 5759 5759 5760 5760 5761 5762 5763 5764 5766 5767 5767 5768 5769 5770 5771 5773 5774 5775 5776 5777 5778 5778 5779 5780 5780 5781 5782 5782 5783 5784 5785 5785 5786 5787 5787 5787 5788 5788 5788 5788 5789 5788 5788 5789 5789 5789 5790 5791 5791 5791 5792 5793 5794 5795 5795 5795 5795 5796 5796 5797 5797 5797 5797 5797 5797 5797 5797 5797 5797 5797 5796 5796 5796 5796 5796 5795 5795 5794
5751 5753 5753 5753 5753 5754 5755 5756 5757 5757 5757 5757 5759 5760 5762 5763 5764 5764 5765 5766 5767 5769 5770 5771 5772 5773 5774 5775 5776 5777 5778 5778 5779 5780 5780 5781 5782 5783 5783 5783 5784 5785 5785 5785 5786 5786 5786 5786 5787 5787 5787 5787 5788 5788 5789 5789 5789 5789 5790 5792 5793 5793 5793 5793 5793 5794 5795 5795 5795 5795 5794 5794 5794 5794 5794 5794 5794 5793 5793 5793 5793 5792 5792 5792 5791
5748 5748 5749 5749 5749 5750 5751 5752 5753 5754 5754 5755 5756 5757 5759 5760 5761 5762 5763 5764 5765 5767 5768 5769 5770 5771 5772 5773 5774 5775 5776 5777 5777 5778 5778 5779 5780 5780 5780 5781 5782 5782 5782 5783 5783 5784 5784 5784 5785 5785 5785 5785 5786 5786 5787 5787 5787 5787 5788 5789 5790 5791 5790 5790 5790 5791 5792 5792 5792 5792 5792 5791 5791 5791 5791 5790 5790 5790 5790 5790 5789 5789 5789 5788 5788
5744 5745 5745 5746 5746 5747 5747 5748 5749 5750 5751 5752 5753 5754 5755 5757 5758 5760 5761 5762 5763 5765 5766 5767 5768 5769 5770 5771 5772 5773 5774 5775 5775 5776 5776 5777 5778 5778 5778 5779 5779 5780 5780 5780 5781 5781 5782 5782 5783 5783 5783 5783 5784 5785 5785 5786 5785 5785 5786 5787 5788 5788 5788 5788 5787 5788 5788 5789 5789 5788 5788 5788 5788 5787 5787 5788 5788 5787 5787 5787 5786 5786 5786 5785 5784
5741 5741 5741 5742 5743 5744 5744 5745 5746 5747 5748 5749 5750 5751 5752 5754 5756 5757 5759 5760 5761 5762 5763 5764 5766 5767 5768 5769 5770 5771 5772 5772 5773 5773 5774 5774 5775 5776 5776 5776 5777 5777 5778 5778 5779 5779 5779 5780 5780 5780 5781 5781 5781 5783 5783 5784 5784 5783 5783 5784 5784 5784 5784 5785 5785 5785 5784 5785 5785 5785 5785 5785 5785 5785 5784 5784 5785 5785 5784 5784 5784 5784 5783 5783 5782
5738 5738 5739 5739 5740 5740 5741 5742 5744 5744 5745 5746 5747 5748 5749 5751 5753 5755 5756 5758 5759 5760 5761 5762 5763 5764 5766 5767 5768 5769 5769 5769 5770 5770 5771 5772 5773 5773 5774 5774 5775 5775 5776 5776 5777 5777 5777 5778 5778 5778 5778 5779 5779 5780 5781 5781 5781 5781 5781 5781 5781 5780 5780 5782 5783 5783 5782 5782 5782 5782 5781 5781 5782 5782 5781 5781 5781 5781 5782 5782 5782 5781 5781 5780 5779
5736 5737 5737 5737 5737 5737 5738 5741 5742 5742 5743 5744 5745 5746 5746 5748 5750 5752 5753 5754 5755 5757 5758 5759 5761 5763 5764 5765 5765 5765 5766 5767 5767 5768 5769 5770 5770 5771 5772 5772 5772 5773 5774 5774 5775 5775 5775 5775 5775 5775 5776 5776 5777 5777 5777 5777 5778 5778 5778 5779 5778 5777 5777 5777 5778 5779 5779 5779 5778 5778 5778 5778 5777 5777 5778 5778 5778 5777 5777 5778 5777 5776 5776 5776 5776
5733 5734 5734 5734 5735 5735 5736 5737 5738 5739 5740 5742 5743 5743 5744 5745 5747 5749 5750 5751 5752 5754 5755 5758 5760 5761 5762 5762 5762 5762 5763 5765 5765 5766 5766 5767 5768 5769 5769 5770 5771 5771 5771 5772 5773 5772 5773 5773 5773 5773 5774 5774 5774 5774 5774 5774 5774 5774 5775 5776 5776 5775 5774 5774 5773 5774 5774 5774 5774 5774 5774 5773 5773 5773 5773 5773 5773 5773 5773 5773 5773 5772 5771 5771 5771
5730 5730 5730 5731 5731 5731 5732 5734 5735 5736 5738 5739 5740 5740 5741 5743 5745 5746 5747 5748 5750 5752 5754 5756 5758 5759 5759 5759 5759 5760 5761 5762 5763 5764 5764 5765 5766 5766 5767 5767 5768 5769 5769 5770 5770 5770 5770 5770 5770 5771 5772 5772 5771 5771 5771 5771 5771 5771 5771 5771 5772 5772 5771 5770 5770 5769 5769 5769 5769 5769 5769 5769 5769 5769 5768 5768 5768 5768 5768 5767 5767 5767 5767 5767 5766
5726 5726 5727 5727 5727 5728 5730 5731 5733 5734 5735 5736 5736 5737 5738 5740 5742 5744 5745 5746 5748 5750 5752 5754 5755 5756 5756 5755 5756 5757 5758 5760 5761 5761 5762 5763 5763 5764 5764 5765 5765 5766 5766 5767 5767 5767 5767 5768 5768 5769 5769 5769 5768 5768 5768 5768 5768 5768 5767 5767 5767 5768 5768 5768 5767 5766 5766 5765 5765 5765 5765 5765 5765 5765 5764 5764 5763 5763 5762 5761 5761 5760 5760 5760 5759
5723 5723 5724 5725 5725 5725 5727 5729 5730 5731 5733 5733 5734 5735 5736 5738 5740 5741 5743 5744 5747 5748 5749 5751 5752 5752 5752 5753 5754 5755 5756 5757 5758 5759 5759 5760 5761 5761 5761 5762 5763 5763 5763 5764 5765 5765 5765 5765 5766 5766 5766 5765 5765 5765 5765 5764 5764 5764 5763 5763 5763 5764 5764 5764 5764 5763 5763 5762 5762 5762 5761 5761 5761 5760 5760 5760 5759 5758 5757 5756 5755 5754 5753 5752 5752
5720 5720 5721 5722 5723 5723 5725 5727 5728 5729 5730 5731 5731 5733 5735 5736 5737 5739 5740 5742 5743 5744 5745 5746 5748 5749 5750 5750 5751 5752 5753 5754 5755 5756 5756 5757 5758 5758 5758 5759 5760 5760 5760 5761 5762 5762 5762 5762 5762 5763 5762 5762 5762 5761 5761 5760 5760 5760 5760 5760 5760 5759 5760 5760 5759 5759 5759 5759 5759 5758 5757 5757 5756 5755 5755 5754 5754 5753 5753 5752 5751 5749 5748 5747 5746
5717 5718 5719 5719 5720 5721 5723 5724 5725 5726 5727 5728 5729 5731 5732 5733 5735 5736 5737 5738 5739 5740 5741 5743 5745 5746 5747 5748 5749 5750 5751 5751 5752 5752 5753 5754 5754 5755 5755 5756 5756 5756 5757 5758 5758 5758 5758 5758 5759 5759 5759 5758 5757 5756 5756 5756 5756 5756 5756 5756 5756 5755 5755 5755 5755 5755 5755 5755 5754 5753 5752 5752 5751 5751 5750 5750 5749 5749 5748 5747 5746 5745 5743 5742 5740
5714 5715 5716 5717 5718 5719 5721 5721 5722 5724 5724 5725 5727 5728 5729 5731 5732 5733 5734 5735 5736 5738 5739 5741 5742 5744 5744 5745 5746 5747 5748 5748 5749 5750 5750 5750 5751 5752 5752 5753 5753 5753 5754 5754 5754 5754 5754 5754 5755 5756 5756 5755 5752 5751 5752 5752 5752 5752 5752 5752 5752 5752 5751 5751 5752 5751 5751 5751 5750 5750 5748 5748 5747 5746 5746 5745 5745 5744 5743 5743 5741 5739 5738 5736 5735
5713 5713 5714 5715 5715 5717 5718 5719 5720 5722 5722 5723 5724 5726 5727 5728 5729 5730 5732 5733 5734 5736 5737 5738 5739 5740 5741 5742 5743 5744 5745 5746 5746 5746 5747 5747 5748 5749 5750 5750 5750 5750 5750 5750 5750 5750 5750 5750 5751 5752 5752 5751 5748 5747 5748 5748 5748 5748 5748 5748 5748 5748 5748 5748 5748 5747 5747 5746 5746 5745 5744 5743 5743 5742 5741 5741 5740 5741 5741 5739 5735 5733 5732 5730 5729
5711 5711 5712 5712 5713 5714 5715 5717 5719 5720 5721 5722 5722 5724 5725 5726 5727 5728 5729 5730 5731 5732 5733 5734 5736 5737 5738 5739 5740 5741 5742 5742 5743 5743 5743 5744 5745 5746 5746 5746 5747 5746 5745 5745 5746 5745 5745 5745 5746 5747 5747 5745 5744 5744 5744 5744 5744 5744 5744 5745 5745 5745 5744 5744 5743 5742 5742 5741 5741 5740 5739 5738 5738 5737 5736 5735 5735 5738 5738 5734 5729 5728 5727 5724 5724
5709 5709 5709 5710 5711 5712 5713 5714 5716 5717 5719 5720 5720 5721 5722 5723 5725 5727 5726 5726 5727 5729 5730 5731 5732 5733 5735 5736 5737 5738 5738 5739 5739 5739 5739 5740 5740 5741 5742 5742 5743 5742 5741 5741 5741 5741 5741 5740 5741 5741 5742 5741 5741 5741 5740 5740 5740 5741 5741 5741 5741 5741 5740 5740 5739 5738 5737 5736 5735 5735 5734 5733 5732 5731 5730 5729 5728 5730 5731 5727 5723 5722 5721 5718 5717
5708 5708 5708 5708 5709 5710 5711 5712 5713 5714 5716 5717 5717 5718 5719 5720 5722 5723 5723 5723 5725 5726 5727 5728 5729 5730 5731 5732 5733 5734 5735 5735 5736 5735 5735 5736 5736 5737 5737 5738 5738 5738 5738 5737 5737 5737 5737 5736 5736 5737 5737 5737 5737 5737 5736 5736 5737 5737 5737 5737 5737 5736 5736 5735 5735 5734 5733 5731 5730 5730 5728 5727 5726 5725 5724 5723 5722 5721 5721 5719 5717 5715 5713 5711 5709
5706 5707 5707 5707 5707 5708 5709 5710 5711 5711 5712 5712 5713 5714 5715 5716 5717 5718 5719 5720 5722 5723 5724 5725 5726 5727 5728 5729 5730 5731 5731 5732 5732 5732 5732 5733 5733 5733 5733 5733 5733 5734 5733 5733 5733 5733 5733 5733 5732 5732 5732 5732 5732 5732 5732 5733 5733 5733 5732 5732 5732 5731 5731 5731 5730 5729 5728 5727 5725 5724 5723 5721 5720 5719 5717 5716 5715 5713 5711 5710 5708 5705 5704 5702 5700
5704 5704 5705 5705 5706 5706 5707 5709 5709 5709 5710 5710 5710 5710 5711 5712 5713 5714 5716 5716 5717 5719 5720 5721 5722 5723 5724 5725 5726 5727 5728 5728 5729 5729 5729 5729 5730 5730 5730 5730 5730 5730 5730 5730 5730 5730 5729 5729 5729 5728 5728 5728 5728 5729 5728 5728 5728 5727 5727 5727 5727 5726 5726 5725 5724 5723 5723 5721 5720 5719 5717 5715 5713 5711 5710 5708 5706 5704 5702 5700 5697 5695 5693 5692 5690
5701 5702 5702 5702 5703 5704 5705 5706 5706 5707 5707 5707 5707 5707 5708 5709 5710 5711 5712 5713 5714 5715 5716 5717 5718 5719 5720 5721 5722 5723 5724 5724 5724 5725 5726 5726 5726 5726 5726 5726 5726 5726 5726 5727 5727 5726 5726 5725 5725 5725 5725 5725 5725 5724 5724 5723 5723 5722 5723 5723 5722 5721 5720 5719 5718 5717 5716 5715 5713 5712 5710 5709 5706 5704 5702 5700 5698 5695 5693 5691 5688 5686 5684 5682 5680
5698 5699 5699 5700 5700 5701 5702 5702 5703 5703 5703 5704 5704 5704 5705 5705 5706 5707 5708 5709 5710 5712 5712 5713 5714 5715 5716 5717 5718 5719 5719 5719 5720 5721 5721 5722 5722 5722 5722 5722 5722 5722 5722 5722 5722 5722 5722 5722 5721 5721 5721 5720 5720 5719 5719 5718 5718 5718 5717 5717 5717 5716 5715 5713 5712 5710 5709 5707 5706 5704 5702 5701 5699 5697 5694 5693 5690 5688 5686 5683 5680 5678 5675 5673 5670
5695 5696 5696 5696 5696 5697 5698 5699 5699 5699 5700 5700 5700 5701 5702 5702 5702 5703 5705 5706 5707 5708 5709 5709 5710 5711 5712 5714 5715 5715 5715 5715 5716 5717 5717 5717 5718 5718 5719 5718 5718 5718 5717 5717 5718 5718 5718 5718 5717 5716 5716 5715 5715 5714 5714 5713 5713 5712 5712 5711 5710 5709 5708 5706 5704 5703 5702 5700 5698 5696 5694 5692 5690 5688 5686 5685 5683 5681 5678 5675 5672 5669 5666 5663 5661
5692 5692 5692 5692 5692 5693 5695 5696 5696 5696 5696 5696 5696 5698 5698 5699 5700 5701 5702 5703 5704 5703 5704 5706 5706 5707 5709 5710 5710 5710 5710 5711 5712 5712 5712 5713 5714 5714 5714 5714 5713 5713 5713 5713 5713 5713 5713 5713 5712 5712 5711 5710 5709 5708 5708 5707 5706 5705 5705 5704 5703 5702 5700 5698 5697 5696 5694 5692 5690 5687 5684 5682 5680 5679 5677 5675 5673 5671 5669 5665 5662 5659 5656 5653 5650
5688 5688 5689 5689 5689 5689 5690 5691 5692 5692 5692 5693 5694 5695 5695 5696 5697 5698 5699 5700 5700 5699 5700 5702 5703 5704 5704 5705 5705 5705 5706 5707 5708 5708 5708 5708 5708 5708 5708 5708 5708 5708 5708 5708 5708 5708 5708 5707 5707 5707 5706 5705 5704 5703 5702 5700 5699 5698 5698 5697 5695 5694 5692 5691 5690 5688 5686 5684 5682 5679 5676 5673 5671 5670 5668 5665 5663 5661 5658 5654 5651 5648 5645 5642 5639
5684 5684 5685 5686 5686 5686 5686 5687 5688 5689 5689 5690 5690 5691 5691 5692 5693 5694 5695 5696 5697 5696 5697 5698 5700 5700 5700 5700 5700 5701 5701 5702 5703 5703 5703 5703 5703 5703 5703 5703 5703 5703 5703 5703 5703 5702 5702 5702 5702 5701 5701 5700 5698 5697 5695 5693 5692 5691 5691 5690 5688 5687 5685 5683 5682 5680 5677 5675 5673 5670 5668 5665 5662 5660 5658 5655 5653 5650 5646 5643 5639 5636 5634 5631 5628
5679 5680 5681 5682 5683 5683 5683 5683 5684 5684 5685 5686 5687 5687 5687 5688 5689 5689 5690 5691 5692 5692 5693 5694 5695 5695 5695 5695 5695 5696 5696 5697 5697 5697 5697 5698 5698 5698 5698 5698 5698 5698 5697 5697 5697 5697 5696 5696 5696 5695 5695 5693 5691 5690 5688 5687 5686 5685 5684 5683 5681 5679 5676 5675 5673 5671 5668 5666 5664 5661 5659 5656 5653 5650 5648 5645 5642 5639 5636 5633 5629 5626 5623 5621 5618
5674 5675 5676 5677 5678 5679 5680 5680 5681 5681 5681 5681 5682 5683 5683 5684 5684 5685 5685 5686 5687 5687 5688 5688 5690 5690 5690 5690 5691 5691 5691 5692 5692 5692 5692 5692 5692 5692 5692 5692 5692 5692 5692 5691 5691 5690 5690 5690 5689 5689 5688 5686 5684 5683 5681 5680 5679 5678 5676 5675 5673 5670 5668 5666 5665 5662 5659 5657 5655 5652 5650 5647 5643 5640 5638 5635 5632 5629 5627 5624 5621 5617 5614 5611 5608
5671 5671 5672 5672 5673 5674 5675 5676 5676 5677 5677 5677 5678 5678 5679 5679 5680 5680 5681 5681 5682 5683 5683 5683 5684 5685 5685 5686 5686 5686 5687 5687 5687 5687 5687 5687 5687 5687 5687 5687 5686 5686 5686 5685 5685 5684 5684 5683 5683 5682 5681 5679 5677 5676 5675 5674 5672 5671 5669 5667 5665 5663 5661 5659 5657 5654 5652 5649 5646 5643 5640 5637 5633 5630 5627 5624 5622 5619 5617 5614 5611 5609 5606 5603 5599
5668 5668 5668 5668 5669 5669 5670 5671 5671 5672 5672 5673 5673 5674 5674 5675 5675 5676 5677 5677 5678 5679 5679 5679 5680 5680 5681 5681 5681 5682 5682 5682 5682 5682 5682 5682 5682 5682 5682 5682 5681 5681 5680 5680 5679 5678 5678 5677 5676 5676 5674 5673 5671 5670 5669 5668 5666 5664 5662 5660 5658 5656 5654 5651 5648 5645 5643 5640 5637 5634 5631 5627 5624 5620 5617 5614 5612 5609 5607 5604 5601 5599 5597 5594 5591
5663 5664 5664 5664 5665 5665 5666 5666 5667 5667 5668 5668 5669 5669 5670 5670 5671 5672 5673 5674 5674 5675 5675 5675 5676 5676 5676 5677 5677 5677 5677 5677 5677 5677 5677 5677 5677 5677 5677 5676 5676 5675 5675 5674 5673 5672 5672 5671 5670 5670 5669 5667 5666 5664 5662 5661 5660 5658 5655 5653 5651 5650 5647 5643 5639 5636 5633 5630 5627 5625 5622 5618 5615 5612 5608 5605 5602 5600 5597 5594 5592 5589 5587 5584 5582
5658 5659 5659 5660 5660 5660 5661 5662 5662 5663 5663 5664 5664 5664 5665 5665 5667 5668 5669 5670 5670 5670 5670 5670 5671 5671 5671 5671 5671 5671 5671 5671 5671 5671 5671 5671 5672 5672 5671 5670 5670 5670 5670 5668 5667 5667 5666 5665 5664 5663 5663 5662 5660 5658 5656 5654 5652 5650 5647 5645 5643 5642 5639 5635 5631 5627 5624 5621 5618 5616 5613 5610 5607 5604 5600 5597 5593 5591 5588 5585 5583 5580 5577 5575 5572
5652 5653 5654 5654 5654 5654 5655 5656 5657 5658 5658 5659 5659 5659 5660 5661 5662 5663 5664 5664 5664 5664 5665 5665 5665 5665 5666 5666 5666 5666 5666 5666 5666 5666 5666 5666 5666 5666 5666 5665 5664 5664 5664 5662 5661 5660 5659 5658 5657 5656 5656 5655 5653 5651 5649 5647 5644 5641 5638 5636 5634 5632 5630 5627 5624 5620 5617 5614 5610 5607 5605 5602 5599 5595 5592 5589 5586 5583 5580 5577 5575 5572 5569 5567 5564
5646 5648 5649 5649 5649 5649 5650 5651 5651 5652 5653 5653 5654 5654 5654 5656 5657 5658 5658 5658 5659 5660 5660 5660 5660 5660 5660 5660 5661 5661 5661 5661 5661 5661 5661 5660 5660 5660 5660 5659 5658 5658 5657 5656 5654 5654 5652 5651 5650 5649 5648 5647 5645 5643 5641 5639 5636 5633 5630 5627 5625 5622 5620 5618 5616 5613 5610 5607 5603 5600 5597 5594 5591 5588 5585 5582 5579 5576 5574 5571 5568 5565 5563 5561 5559
5641 5642 5643 5643 5644 5644 5645 5645 5645 5646 5647 5647 5647 5647 5649 5650 5651 5651 5652 5653 5654 5654 5653 5653 5654 5654 5655 5655 5655 5655 5654 5655 5655 5655 5655 5654 5654 5654 5653 5652 5651 5651 5650 5649 5648 5647 5645 5644 5642 5641 5640 5638 5636 5635 5633 5630 5628 5625 5622 5619 5617 5614 5612 5610 5608 5606 5603 5600 5596 5593 5590 5587 5584 5582 5579 5576 5573 5571 5568 5566 5564 5561 5559 5557 5556
5635 5636 5636 5637 5637 5637 5638 5639 5639 5640 5640 5640 5639 5641 5642 5643 5644 5645 5647 5648 5648 5647 5646 5647 5648 5649 5649 5649 5649 5648 5648 5648 5648 5648 5648 5648 5647 5647 5646 5645 5645 5644 5643 5642 5641 5640 5638 5637 5635 5634 5632 5630 5628 5626 5624 5622 5620 5618 5615 5613 5610 5608 5605 5603 5600 5598 5595 5592 5589 5586 5584 5581 5578 5576 5573 5571 5568 5566 5565 5563 5561 5558 5556 5555 5554
5628 5629 5629 5630 5630 5630 5631 5633 5634 5634 5633 5632 5632 5634 5635 5636 5637 5639 5641 5642 5641 5638 5638 5640 5642 5642 5642 5642 5642 5642 5642 5642 5642 5642 5642 5641 5641 5640 5640 5639 5638 5637 5636 5635 5634 5633 5631 5630 5628 5627 5625 5623 5621 5619 5617 5615 5613 5611 5609 5606 5604 5602 5599 5596 5593 5591 5588 5586 5583 5581 5578 5576 5573 5571 5569 5567 5565 5563 5562 5560 5558 5556 5554 5553 5552
5621 5622 5623 5623 5623 5624 5625 5627 5628 5628 5627 5626 5626 5628 5629 5630 5631 5632 5634 5635 5634 5631 5631 5633 5636 5636 5636 5635 5635 5635 5636 5636 5635 5636 5635 5635 5634 5634 5633 5632 5632 5631 5629 5628 5627 5626 5624 5623 5622 5620 5618 5616 5615 5613 5611 5609 5607 5604 5602 5600 5598 5595 5593 5590 5587 5585 5582 5580 5578 5575 5573 5571 5569 5567 5566 5564 5563 5561 5559 5557 5556 5554 5552 5551 5549
5614 5616 5617 5617 5617 5618 5619 5621 5622 5622 5621 5620 5620 5621 5623 5624 5625 5625 5627 5628 5628 5626 5626 5628 5629 5630 5630 5629 5629 5629 5630 5629 5629 5629 5629 5628 5628 5627 5626 5626 5625 5624 5623 5622 5620 5619 5618 5616 5615 5613 5612 5610 5608 5606 5604 5602 5600 5598 5596 5594 5591 5589 5586 5584 5582 5580 5577 5575 5572 5570 5569 5567 5565 5564 5562 5561 5560 5558 5556 5555 5553 5551 5550 5548 5547
5608 5610 5611 5611 5612 5613 5614 5615 5616 5616 5616 5615 5615 5616 5618 5619 5620 5620 5621 5622 5622 5622 5622 5623 5623 5624 5624 5623 5623 5623 5623 5623 5623 5623 5622 5622 5621 5620 5620 5619 5618 5617 5616 5615 5614 5613 5611 5610 5609 5607 5605 5604 5602 5600 5598 5596 5594 5592 5590 5588 5585 5583 5581 5579 5577 5575 5573 5570 5568 5566 5565 5563 5562 5560 5559 5558 5557 5556 5554 5552 5550 5549 5547 5546 5544
5602 5603 5604 5605 5606 5607 5608 5609 5609 5609 5609 5610 5610 5611 5612 5614 5614 5615 5616 5616 5616 5616 5617 5617 5617 5618 5618 5617 5616 5616 5616 5616 5616 5616 5616 5615 5615 5614 5613 5613 5612 5611 5610 5609 5608 5607 5605 5604 5603 5601 5600 5598 5596 5595 5593 5591 5589 5587 5585 5582 5580 5578 5576 5574 5572 5570 5568 5566 5564 5562 5561 5560 5559 5557 5556 5555 5554 5553 5551 5550 5548 5547 5545 5544 5542
5596 5597 5597 5598 5599 5601 5602 5602 5601 5602 5602 5603 5604 5605 5606 5607 5608 5609 5609 5609 5609 5610 5610 5611 5611 5611 5611 5611 5610 5610 5609 5609 5610 5610 5609 5609 5609 5608 5608 5607 5606 5606 5605 5604 5602 5601 5600 5599 5597 5596 5594 5593 5591 5590 5588 5586 5584 5582 5580 5578 5576 5574 5572 5570 5568 5566 5565 5563 5561 5559 5558 5557 5556 5555 5553 5553 5552 5550 5549 5548 5546 5545 5543 5542 5541
5589 5590 5590 5591 5592 5595 5595 5594 5594 5594 5595 5596 5597 5598 5599 5600 5601 5602 5602 5602 5603 5603 5603 5604 5605 5605 5605 5605 5605 5604 5604 5604 5604 5604 5604 5604 5603 5603 5602 5602 5601 5601 5600 5599 5598 5597 5595 5594 5593 5591 5590 5588 5586 5585 5583 5581 5579 5577 5575 5573 5571 5570 5568 5566 5564 5563 5561 5559 5558 5556 5555 5554 5553 5552 5551 5550 5549 5548 5547 5546 5544 5543 5541 5540 5539
5583 5584 5584 5585 5586 5589 5589 5588 5587 5588 5589 5590 5591 5592 5593 5594 5595 5595 5595 5596 5596 5597 5597 5598 5599 5599 5600 5600 5600 5599 5599 5599 5599 5599 5599 5599 5598 5598 5598 5597 5597 5596 5595 5595 5594 5593 5592 5590 5589 5587 5586 5584 5582 5580 5578 5576 5575 5573 5571 5569 5568 5566 5564 5562 5561 5559 5558 5556 5555 5554 5553 5552 5551 5550 5548 5547 5546 5545 5544 5543 5542 5540 5539 5538 5536
5578 5578 5579 5579 5581 5583 5584 5582 5581 5582 5584 5585 5585 5586 5587 5588 5589 5589 5590 5590 5591 5591 5592 5592 5593 5594 5594 5594 5594 5594 5595 5594 5594 5594 5594 5594 5594 5594 5593 5593 5592 5592 5591 5590 5590 5589 5588 5586 5585 5583 5582 5580 5578 5576 5574 5572 5570 5569 5567 5565 5564 5562 5560 5559 5557 5556 5555 5553 5552 5551 5550 5549 5548 5547 5546 5545 5544 5542 5541 5540 5539 5538 5537 5535 5534
5574 5574 5574 5574 5575 5577 5578 5578 5577 5577 5578 5579 5580 5581 5582 5583 5584 5584 5585 5585 5586 5586 5586 5587 5588 5588 5589 5589 5589 5590 5590 5590 5590 5590 5590 5590 5590 5590 5589 5589 5589 5588 5587 5587 5586 5585 5584 5583 5581 5579 5577 5575 5574 5572 5570 5568 5567 5565 5563 5562 5560 5558 5557 5556 5554 5553 5552 5550 5549 5548 5547 5546 5545 5544 5543 5542 5541 5540 5539 5538 5537 5536 5534 5533 5532
5569 5570 5570 5570 5570 5572 5573 5573 5573 5572 5572 5573 5574 5575 5576 5577 5579 5579 5579 5580 5581 5581 5581 5582 5582 5583 5584 5584 5585 5585 5585 5585 5586 5586 5586 5586 5586 5586 5586 5585 5585 5585 5584 5583 5583 5582 5581 5579 5577 5575 5574 5572 5570 5568 5566 5565 5563 5562 5560 5558 5557 5555 5554 5553 5551 5550 5549 5548 5546 5545 5545 5544 5543 5541 5540 5539 5538 5537 5536 5535 5534 5533 5532 5531 5530
5566 5565 5566 5566 5566 5567 5568 5568 5569 5568 5568 5568 5569 5570 5571 5572 5573 5574 5574 5575 5575 5576 5577 5577 5578 5578 5579 5580 5580 5581 5581 5581 5582 5582 5583 5583 5583 5582 5582 5582 5582 5582 5581 5580 5580 5579 5578 5576 5574 5572 5570 5568 5566 5565 5563 5562 5560 5559 5557 5555 5554 5552 5551 5550 5548 5547 5546 5545 5544 5543 5542 5541 5540 5539 5538 5537 5536 5535 5534 5533 5532 5531 5530 5529 5528
5562 5562 5562 5562 5562 5562 5563 5564 5564 5564 5564 5564 5565 5566 5567 5568 5569 5569 5570 5570 5571 5571 5572 5573 5573 5574 5575 5576 5576 5577 5577 5577 5578 5578 5579 5579 5579 5579 5579 5579 5579 5579 5578 5577 5577 5576 5574 5573 5571 5569 5567 5565 5563 5562 5560 5559 5557 5556 5554 5553 5551 5550 5548 5547 5546 5544 5543 5542 5541 5540 5539 5538 5537 5536 5536 5535 5533 5532 5532 5531 5530 5529 5528 5527 5526
5559 5559 5558 5558 5558 5558 5559 5559 5560 5560 5560 5560 5560 5561 5563 5564 5564 5565 5565 5566 5566 5567 5568 5568 5569 5570 5571 5572 5573 5573 5573 5574 5574 5575 5575 5576 5576 5576 5576 5576 5576 5575 5575 5574 5573 5572 5571 5570 5568 5566 5564 5562 5561 5559 5558 5556 5555 5553 5552 5550 5549 5547 5545 5544 5543 5542 5541 5540 5539 5538 5537 5536 5535 5534 5533 5532 5531 5530 5529 5528 5527 5527 5526 5525 5524